Wind_Speed
9 9 8 8 8 8 7 8 8 7 7 8 9 9 9 9 9 10 10 9 8 8 8 8 8 8 8 9 9 9 9 9 9 9 8 8 7 7 7 7 7 7 7 7
11 10 9 9 8 8 9 9 9 8 8 8 8 9 9 9 9 10 10 9 8 8 8 8 9 8 8 9 9 9 9 9 9 9 8 8 8 8 7 6 7 7 7 6
11 11 10 10 9 9 9 9 9 9 9 9 9 9 9 9 9 9 9 9 9 8 9 9 8 8 9 10 10 9 10 9 9 9 8 8 8 8 7 7 7 7 7 7
13 13 12 11 10 10 10 9 9 10 9 9 9 9 10 10 9 9 9 9 9 9 9 9 9 8 9 9 10 10 10 10 9 9 8 8 8 8 7 7 6 6 7 7
14 14 13 12 11 11 10 10 10 10 10 9 9 10 10 10 10 9 9 9 9 9 9 9 9 9 9 9 10 10 10 10 10 9 9 8 8 8 7 7 7 7 7 7
15 14 14 13 13 12 12 11 11 10 10 10 10 10 10 10 10 9 9 9 10 10 9 9 9 10 10 10 10 10 10 10 10 10 9 9 8 8 8 7 8 7 7 7
16 16 15 14 14 13 13 12 12 11 11 11 11 12 11 11 11 10 10 10 10 10 10 9 9 10 10 10 10 10 9 9 10 10 9 9 8 8 8 8 8 7 7 7
17 17 16 16 15 14 13 13 11 10 10 12 13 13 12 11 11 11 11 11 11 10 10 10 10 10 10 10 10 9 10 10 10 10 10 10 9 9 9 9 8 8 7 7
18 18 17 17 16 16 15 15 14 14 13 13 12 12 12 12 12 12 12 12 12 11 11 11 11 11 11 11 10 10 10 10 10 10 11 10 10 10 9 9 8 8 7 7
19 19 19 19 18 17 17 16 16 16 15 13 13 13 13 12 12 13 13 13 13 13 13 12 12 12 12 11 11 11 11 11 11 11 11 11 10 10 10 10 9 9 8 8
20 21 21 19 18 18 18 18 17 18 17 15 13 14 16 15 14 14 14 14 14 13 13 13 13 12 12 12 12 12 11 11 11 12 12 12 11 11 11 11 11 10 10 10
21 21 22 21 20 20 19 19 19 19 18 18 17 17 16 17 17 16 15 15 15 14 14 14 13 13 13 13 13 13 12 12 12 12 12 13 13 13 13 12 12 11 11 11
23 22 22 23 22 21 21 21 21 21 20 20 20 20 19 19 19 18 17 16 16 16 15 15 14 14 14 14 14 14 13 13 13 13 13 14 14 14 14 14 14 13 12 12
24 24 24 25 24 23 23 23 23 22 22 21 21 21 20 20 20 19 19 17 17 17 16 16 15 15 15 15 15 15 14 14 13 13 14 15 15 15 15 14 14 14 14 13
26 25 25 25 25 25 25 24 24 23 23 23 22 22 21 21 21 21 20 18 18 18 18 17 17 17 16 16 16 15 15 15 14 14 15 15 15 16 16 15 15 15 15 15
27 26 26 25 25 27 27 25 24 24 24 24 24 24 23 22 23 22 21 20 19 20 19 19 18 18 18 17 17 16 16 16 16 16 17 17 16 16 16 17 17 16 16 15
27 27 27 27 27 29 28 26 26 27 26 26 26 25 25 25 23 23 23 22 22 21 20 20 19 19 19 19 18 18 18 18 18 18 18 18 18 17 17 17 17 17 17 17
27 28 29 28 28 31 27 26 27 27 27 27 27 27 27 27 25 24 25 25 24 23 22 21 21 20 20 20 19 20 20 20 20 20 19 18 18 17 17 17 17 17 17 17
29 29 29 30 30 31 29 27 27 27 27 27 28 28 28 27 27 26 27 26 25 24 23 23 23 22 22 21 21 21 21 21 21 20 20 19 18 18 18 18 18 18 18 18
29 30 30 30 31 32 30 29 28 29 28 27 28 28 28 28 28 28 27 27 26 26 25 24 24 24 23 23 23 22 22 22 22 22 21 20 19 19 19 19 19 18 18 19
29 29 30 31 32 32 29 29 29 30 29 28 28 29 28 28 29 28 28 28 27 26 26 25 25 25 25 25 24 23 23 23 23 22 21 21 20 20 20 19 19 19 19 19
29 30 30 31 32 31 29 28 29 30 29 29 29 29 29 29 29 29 29 29 28 27 27 27 27 27 27 26 25 25 24 24 24 23 22 21 21 21 21 20 20 20 20 19
30 30 30 32 32 31 30 31 31 30 30 30 30 30 30 30 31 31 31 30 29 28 28 28 28 27 27 27 26 26 26 26 25 24 24 23 22 22 22 21 21 21 21 20
30 31 31 32 32 31 32 32 32 32 32 31 31 31 31 31 31 32 32 31 30 30 29 29 28 28 28 28 28 27 27 27 26 26 25 25 24 23 23 23 22 22 21 21
30 31 32 32 31 33 33 33 32 33 33 33 32 31 32 32 33 33 32 32 32 31 30 29 29 29 28 28 28 28 28 28 28 27 27 26 26 25 25 24 23 22 22 22
32 32 33 33 33 34 33 33 33 33 33 33 33 33 32 33 33 33 33 33 32 32 31 31 30 30 30 30 29 30 29 29 29 29 28 28 27 27 26 26 24 24 23 23
Wind_Direction
247 253 259 265 273 278 281 288 299 306 311 315 318 321 325 327 329 329 331 334 331 329 327 321 321 323 324 326 330 332 335 335 333 329 328 325 323 321 318 313 312 314 314 315
247 252 257 260 266 275 279 283 291 296 307 312 312 317 321 321 324 327 329 331 330 328 327 327 327 327 324 326 329 330 336 335 331 326 323 325 325 328 325 317 310 309 310 310
245 250 254 257 261 268 272 276 287 294 297 301 306 313 315 316 320 323 326 326 327 327 325 327 326 324 326 329 331 336 339 336 333 330 329 333 331 330 328 321 313 309 311 312
246 249 249 253 259 265 268 272 283 288 292 298 301 306 314 315 319 321 323 323 325 324 324 325 324 316 318 328 330 337 339 335 330 329 328 330 331 329 327 320 314 310 311 313
245 246 247 250 255 260 265 269 276 282 286 292 297 301 310 313 319 319 318 319 320 321 321 322 320 317 320 322 325 330 333 333 329 328 327 326 327 327 325 320 315 311 308 306
245 245 247 249 254 258 262 267 272 280 284 283 292 294 302 311 318 316 313 315 317 320 322 320 319 320 320 317 318 322 326 331 332 328 324 324 324 324 323 320 315 312 309 304
246 247 246 249 254 255 258 264 271 280 290 287 288 284 288 303 307 309 309 311 314 318 318 321 322 323 320 317 314 313 317 323 328 329 324 320 318 320 321 319 315 312 307 303
249 249 247 248 253 256 258 260 264 263 268 277 280 280 284 294 299 302 304 307 310 313 314 317 319 319 318 317 314 311 311 314 318 322 322 316 315 316 316 315 310 307 304 301
248 251 251 252 251 253 255 256 257 257 261 263 272 279 282 289 293 296 299 301 304 307 308 311 312 314 315 315 314 310 305 305 309 313 316 315 314 312 312 311 307 304 300 296
246 251 252 252 252 251 252 254 256 254 256 256 262 273 279 283 286 290 295 298 299 300 302 304 307 309 312 312 311 309 303 302 303 305 308 309 308 307 306 305 302 300 295 289
246 249 252 254 255 255 253 250 254 257 255 254 252 263 272 277 282 284 289 294 296 297 298 300 304 306 308 309 310 310 306 300 300 301 301 304 305 302 302 300 298 296 293 289
246 250 254 256 257 256 254 253 254 255 256 253 253 262 270 275 279 282 286 290 292 293 295 298 300 302 304 306 307 307 304 299 297 298 297 297 297 296 295 294 291 292 289 285
246 248 252 256 256 256 255 253 254 255 255 254 255 263 269 272 275 279 281 283 288 290 291 293 295 298 300 302 304 305 304 302 299 296 296 295 295 293 293 291 288 285 285 284
247 248 249 254 255 257 256 255 256 254 254 254 254 259 266 269 272 272 276 278 282 285 287 288 291 293 296 298 300 300 301 301 301 300 298 296 293 291 289 288 286 283 280 280
248 249 250 252 255 256 257 258 258 255 255 256 255 257 261 266 267 271 273 276 277 280 283 285 287 289 291 294 295 295 295 297 299 301 303 303 299 293 287 283 283 282 278 277
249 250 251 251 254 257 256 257 259 258 258 259 258 259 260 264 266 270 270 272 273 275 277 280 282 285 288 289 291 291 292 294 297 299 301 302 300 296 290 285 282 281 279 276
250 251 252 254 254 256 256 256 257 258 258 259 260 261 260 261 262 264 267 269 270 271 274 276 278 281 285 287 288 288 290 292 295 297 298 298 296 294 294 290 285 281 278 275
250 251 253 254 256 257 260 259 259 259 259 260 261 260 261 263 264 264 266 268 269 271 274 275 277 279 280 283 285 288 290 291 292 294 296 295 293 291 290 290 287 283 280 277
251 252 254 255 257 260 259 260 260 260 260 260 261 262 262 263 265 264 264 266 268 269 271 274 276 278 279 280 283 285 288 290 291 291 292 292 290 289 286 287 285 284 281 277
251 251 253 255 257 260 262 262 262 262 261 261 262 263 264 265 263 264 265 265 266 267 269 270 273 276 277 279 280 282 285 287 289 289 288 288 286 285 285 285 285 283 282 279
251 251 252 255 258 261 263 263 262 262 264 263 263 264 265 265 265 265 266 266 267 268 269 270 272 274 275 276 277 279 282 285 286 287 287 286 284 283 283 284 284 283 282 280
254 254 254 255 257 260 263 263 262 264 265 264 264 265 265 265 266 265 265 266 268 268 268 269 270 272 273 274 275 276 279 282 284 286 286 284 282 280 281 282 282 281 280 280
252 255 256 257 259 262 263 264 264 264 265 264 264 264 265 264 265 265 266 267 268 269 269 269 270 271 272 273 273 274 276 279 282 282 283 283 281 279 279 280 279 278 278 279
252 253 255 258 260 261 263 263 263 264 264 264 264 264 264 264 263 264 266 266 267 269 270 270 270 271 271 271 272 273 274 276 277 279 279 279 279 278 277 277 277 276 275 275
253 255 256 257 259 260 262 264 264 264 264 264 263 264 264 265 265 265 265 265 266 268 270 271 271 271 270 271 271 272 273 274 275 276 277 277 277 277 275 275 275 274 272 273
254 256 258 259 260 262 262 261 262 263 264 265 264 264 265 266 267 266 266 266 265 266 268 270 270 270 270 270 271 272 273 274 274 274 275 274 274 274 274 273 272 272 272 272
Height
5875 5876 5876 5877 5877 5878 5878 5877 5877 5877 5876 5876 5875 5874 5873 5872 5871 5870 5869 5868 5867 5866 5865 5864 5863 5863 5862 5861 5860 5859 5857 5857 5856 5855 5855 5854 5853 5853 5852 5852 5851 5851 5851 5850
5874 5874 5875 5875 5876 5876 5876 5876 5876 5876 5875 5875 5873 5873 5872 5871 5870 5869 5868 5867 5866 5865 5864 5863 5863 5862 5861 5860 5859 5859 5857 5856 5856 5855 5854 5853 5852 5852 5851 5851 5850 5850 5850 5849
5871 5872 5873 5873 5874 5875 5875 5875 5875 5875 5874 5873 5873 5872 5871 5870 5869 5868 5868 5866 5865 5864 5863 5863 5862 5861 5860 5860 5859 5858 5857 5856 5855 5854 5853 5852 5851 5851 5850 5850 5850 5849 5849 5848
5868 5869 5870 5871 5872 5873 5872 5873 5873 5873 5872 5872 5872 5871 5870 5869 5868 5867 5867 5866 5865 5864 5863 5862 5861 5860 5860 5859 5858 5857 5856 5855 5854 5853 5853 5852 5851 5850 5850 5849 5849 5848 5848 5847
5865 5867 5868 5869 5870 5870 5871 5871 5871 5871 5870 5871 5870 5870 5870 5868 5867 5867 5866 5865 5864 5863 5862 5861 5860 5859 5858 5858 5857 5856 5855 5855 5854 5853 5852 5851 5850 5849 5849 5848 5848 5847 5847 5846
5862 5863 5865 5866 5867 5868 5868 5869 5869 5869 5869 5869 5869 5869 5868 5867 5866 5865 5865 5864 5863 5862 5861 5861 5860 5859 5858 5857 5856 5855 5854 5854 5853 5852 5851 5850 5849 5848 5848 5847 5846 5846 5846 5845
5859 5860 5862 5863 5864 5865 5866 5867 5867 5867 5867 5868 5868 5867 5867 5866 5865 5864 5864 5863 5862 5861 5860 5859 5859 5858 5857 5856 5855 5854 5853 5853 5852 5851 5850 5849 5848 5848 5847 5846 5845 5845 5845 5844
5855 5857 5858 5859 5861 5862 5863 5864 5866 5866 5866 5866 5865 5865 5866 5865 5864 5863 5862 5861 5861 5860 5859 5858 5858 5857 5856 5855 5854 5853 5852 5851 5851 5850 5849 5848 5847 5846 5846 5845 5844 5844 5843 5843
5852 5853 5854 5856 5857 5859 5860 5861 5862 5863 5863 5863 5863 5863 5863 5862 5862 5861 5861 5860 5859 5859 5858 5857 5856 5855 5854 5853 5852 5851 5850 5850 5849 5848 5847 5847 5846 5845 5844 5844 5843 5842 5842 5842
5848 5849 5850 5852 5853 5855 5857 5858 5858 5859 5860 5861 5861 5861 5860 5860 5860 5859 5859 5858 5857 5857 5856 5855 5854 5853 5852 5851 5850 5849 5849 5848 5847 5846 5846 5845 5844 5843 5843 5842 5842 5841 5841 5840
5843 5845 5846 5847 5849 5851 5853 5854 5854 5855 5856 5858 5858 5860 5857 5857 5857 5857 5856 5856 5855 5854 5853 5852 5852 5851 5850 5849 5848 5847 5846 5845 5845 5844 5843 5842 5842 5841 5841 5840 5840 5839 5839 5839
5839 5840 5841 5843 5845 5846 5848 5849 5850 5852 5852 5853 5854 5857 5853 5853 5853 5853 5853 5853 5852 5851 5851 5850 5849 5848 5847 5846 5845 5844 5843 5843 5842 5841 5840 5840 5839 5839 5838 5838 5837 5837 5837 5836
5834 5836 5837 5838 5841 5842 5842 5844 5845 5846 5847 5849 5850 5852 5850 5850 5849 5850 5849 5849 5849 5848 5847 5847 5846 5845 5844 5843 5842 5841 5840 5839 5839 5838 5837 5836 5836 5835 5835 5835 5834 5834 5834 5834
5827 5829 5832 5833 5834 5835 5836 5838 5839 5841 5842 5843 5845 5846 5846 5845 5845 5845 5845 5845 5845 5844 5844 5843 5842 5842 5841 5840 5839 5838 5837 5836 5835 5834 5834 5833 5832 5832 5831 5831 5831 5830 5830 5830
5821 5823 5825 5826 5828 5829 5830 5832 5834 5835 5837 5838 5840 5840 5841 5841 5840 5841 5841 5841 5840 5840 5839 5839 5838 5838 5837 5836 5835 5835 5834 5833 5832 5831 5830 5829 5828 5827 5827 5827 5827 5827 5826 5827
5814 5817 5818 5820 5822 5822 5824 5826 5828 5829 5831 5832 5833 5835 5836 5835 5835 5835 5835 5836 5835 5835 5835 5834 5834 5834 5833 5832 5831 5830 5830 5829 5828 5828 5827 5825 5824 5823 5823 5822 5822 5822 5822 5822
5808 5810 5811 5813 5814 5815 5817 5821 5822 5823 5825 5826 5827 5829 5829 5829 5829 5830 5830 5830 5830 5830 5830 5829 5829 5829 5829 5828 5827 5826 5825 5825 5824 5823 5822 5821 5820 5819 5818 5818 5818 5818 5817 5818
5801 5802 5804 5806 5807 5808 5814 5814 5815 5816 5818 5819 5820 5821 5822 5823 5823 5823 5824 5824 5824 5824 5824 5824 5824 5824 5823 5823 5822 5821 5821 5820 5819 5818 5817 5816 5815 5814 5814 5813 5813 5813 5813 5813
5794 5795 5797 5798 5799 5801 5805 5806 5807 5808 5810 5812 5813 5814 5815 5816 5816 5816 5816 5817 5818 5818 5818 5818 5818 5818 5818 5817 5817 5816 5816 5815 5814 5813 5812 5811 5810 5809 5809 5808 5808 5808 5808 5808
5786 5788 5790 5791 5792 5794 5798 5799 5800 5802 5803 5805 5805 5806 5808 5808 5809 5810 5810 5810 5811 5811 5812 5812 5812 5812 5812 5811 5811 5810 5810 5809 5808 5807 5806 5805 5805 5804 5804 5803 5803 5803 5803 5803
5778 5780 5782 5783 5784 5786 5790 5791 5792 5794 5796 5797 5797 5798 5800 5800 5802 5802 5802 5802 5803 5804 5804 5805 5805 5805 5805 5804 5804 5804 5803 5803 5802 5801 5800 5799 5799 5799 5798 5798 5798 5797 5797 5797
5771 5772 5774 5776 5776 5781 5782 5783 5784 5786 5787 5788 5789 5790 5791 5792 5793 5794 5794 5795 5795 5796 5797 5797 5797 5798 5797 5797 5797 5797 5797 5796 5795 5794 5794 5793 5793 5792 5792 5792 5792 5792 5791 5791
5763 5766 5767 5769 5771 5773 5773 5774 5775 5776 5778 5779 5780 5782 5782 5783 5785 5786 5786 5787 5787 5788 5788 5789 5789 5789 5789 5789 5789 5789 5789 5788 5788 5787 5787 5786 5786 5786 5786 5786 5786 5786 5785 5785
5756 5757 5758 5760 5762 5763 5764 5765 5766 5768 5769 5769 5771 5772 5773 5774 5775 5776 5777 5778 5779 5779 5780 5780 5780 5780 5781 5780 5780 5780 5780 5780 5780 5780 5779 5779 5779 5779 5779 5779 5779 5779 5779 5779
5747 5748 5750 5752 5753 5753 5755 5756 5757 5758 5759 5760 5762 5763 5764 5764 5765 5766 5768 5769 5770 5770 5771 5771 5771 5771 5772 5771 5771 5771 5771 5772 5771 5771 5772 5772 5772 5772 5772 5772 5772 5772 5772 5772
5739 5740 5741 5743 5744 5744 5746 5747 5747 5749 5750 5751 5752 5753 5754 5755 5756 5756 5757 5759 5760 5760 5761 5761 5762 5762 5762 5762 5762 5762 5762 5762 5762 5762 5763 5763 5763 5763 5764 5764 5764 5764 5765 5765